[[{"header":{"parameterUnit":"m.s-1","parameterCategory":1,"la1":30.2992,"la2":30.254,"lo1":-89.0895,"lo2":-89.0443,"dy":0.0025,"dx":0.0025,"nx":19,"ny":19,"refTime":"2026-05-11T09:00:00:Z","depth":0,"parameterNumber":2,"parameterNumberName":"U-component_of_WINDS"},"data":[0,0,0,-1.9512,-1.9517,-1.9723,-1.9724,-2.0009,-2.0011,0,0,0,0,0,0,0,0,0,0,0,-1.9457,-1.9458,-1.9512,-1.9517,-1.9723,-1.9724,-2.0008,-2.0011,0,0,0,0,0,0,0,0,0,0,0,-1.9456,-1.9458,-1.946,-1.9518,-1.9723,-1.9724,-2.0007,-1.9846,0,0,0,0,0,0,0,0,0,0,-1.9643,-1.9595,-1.9457,-1.9461,-1.9519,-1.9722,-1.9724,-1.9838,-1.9856,-1.9922,0,-1.9975,0,-1.9997,-2.0031,-2.0032,0,0,0,-1.9515,-1.958,-1.963,-1.9461,-1.9521,-1.9722,-1.9629,-1.9848,-1.9869,-1.9946,-1.9979,-1.9989,-2.0002,-2.0033,-2.0034,-2.0405,-2.0407,0,0,-1.9504,-1.9498,-1.9616,-1.9643,-1.9604,-1.9623,-1.9636,-1.986,-1.9899,-1.998,-1.9995,-2.0006,-2.0035,-2.0037,-2.0403,-2.0405,0,0,0,-1.9472,-1.949,-1.9534,-1.9632,-1.9667,-1.9629,-1.9644,-1.9889,-1.9903,-1.9998,-2.001,-2.0036,-2.004,-2.0401,-2.0404,-2.0489,0,0,0,-1.9466,-1.9472,-1.953,-1.9528,-1.9663,-1.9779,-1.9667,-1.9888,-1.9913,-2.0008,-2.0037,-2.0043,-2.0399,-2.0403,-2.0482,-2.0532,0,0,0,-1.9442,-1.9469,-1.95,-1.9528,-1.9615,-1.9775,-1.9802,-1.9893,-1.992,-2.0032,-2.0044,-2.0398,-2.0402,-2.0476,-2.0522,-2.063,0,0,0,-1.9416,-1.9573,-1.9501,-1.9682,-1.9613,-1.9822,-1.9801,-1.9959,-2.0064,-2.0038,-2.0399,-2.0404,-2.0474,-2.0515,-2.0624,-2.0723,-2.0762,0,0,-1.9611,-1.9596,-1.9703,-1.9645,-1.9865,-1.9792,-2.0028,-2.0132,-2.0151,-2.0321,-2.0331,-2.0484,-2.0521,-2.0629,-2.0977,-2.1008,0,0,0,-1.9764,-1.9841,-1.99,-1.9997,-2.0078,-2.0154,-2.0222,-2.0262,-2.0406,-2.0234,-2.055,-2.0573,-2.0637,-2.0685,-2.0712,-2.077,-2.0424,-2.0423,-2.0423,-2.0035,-2.0046,-2.0226,-2.0264,-2.0359,-2.0428,-2.051,-2.0577,-2.0563,-2.0638,-2.069,-2.0898,-2.0954,-2.0974,-2.1035,-2.0739,-2.074,-2.074,-2.074,-2.0326,-2.044,-2.0415,-2.0581,-2.0596,-2.0738,-2.0813,-2.0799,-2.0939,-2.0859,-2.0917,-2.0833,-2.1008,-2.1062,-2.0747,-2.0746,-2.0745,-2.0744,-2.0744,-2.0509,-2.0565,-2.0607,-2.0751,-2.0863,-2.0898,-2.1033,-2.1041,-2.1052,-2.1107,-2.1167,-2.1166,-2.117,-2.1134,-2.1135,-2.1135,-2.1136,-2.1137,-2.1137,-2.0683,-2.0727,-2.0836,-2.0935,-2.1001,-2.109,-2.1163,-2.1231,-2.1309,-2.1306,-2.1307,-2.1291,-2.1019,-2.0954,-2.1149,-2.1147,-2.1145,-2.1144,-2.1143,-2.0981,-2.0915,-2.1083,-2.1149,-2.127,-2.1384,-2.1391,-2.153,-2.1587,-2.1656,-2.1627,-2.1422,-2.141,-2.139,-2.1336,-2.1618,-2.1618,-2.1618,-2.1618,-2.1139,-2.1131,-2.1307,-2.1413,-2.1517,-2.1542,-2.1742,-2.1803,-2.1857,-2.1896,-2.1855,-2.1783,-2.1761,-2.1763,-2.1734,-2.1685,-2.2049,-2.2049,-2.205,-2.1326,-2.1329,-2.1493,-2.1538,-2.1634,-2.1719,-2.1909,-2.2039,-2.2086,-2.2068,-2.1928,-2.191,-2.1794,-2.1754,-2.1736,-2.169,-2.16,0,0]},{"header":{"parameterUnit":"m.s-1","parameterCategory":1,"la1":30.2992,"la2":30.254,"lo1":-89.0895,"lo2":-89.0443,"dy":0.0025,"dx":0.0025,"nx":19,"ny":19,"refTime":"2026-05-11T09:00:00:Z","depth":0,"parameterNumber":3,"parameterNumberName":"V-component_of_WINDS"},"data":[0,0,0,-2.1416,-2.141,-2.1099,-2.1098,-2.0737,-2.0734,0,0,0,0,0,0,0,0,0,0,0,-2.1535,-2.1533,-2.1416,-2.1409,-2.1099,-2.1098,-2.0737,-2.0734,0,0,0,0,0,0,0,0,0,0,0,-2.1535,-2.1534,-2.1532,-2.1408,-2.11,-2.1097,-2.0738,-2.0958,0,0,0,0,0,0,0,0,0,0,-2.1253,-2.139,-2.1534,-2.1532,-2.1407,-2.11,-2.1097,-2.0968,-2.0944,-2.0895,0,-2.0862,0,-2.0793,-2.0713,-2.0711,0,0,0,-2.1388,-2.141,-2.1303,-2.1532,-2.1404,-2.1101,-2.1233,-2.0954,-2.0928,-2.0864,-2.0856,-2.0842,-2.0787,-2.0711,-2.0709,-2.0504,-2.0505,0,0,-2.1405,-2.1492,-2.1322,-2.1287,-2.1343,-2.1243,-2.1224,-2.0938,-2.0934,-2.0855,-2.0833,-2.0781,-2.0708,-2.0706,-2.0504,-2.0504,0,0,0,-2.1469,-2.1505,-2.1403,-2.1303,-2.1245,-2.1235,-2.1212,-2.0946,-2.0906,-2.0828,-2.0777,-2.0707,-2.0703,-2.0504,-2.0504,-2.0594,0,0,0,-2.1478,-2.1542,-2.1412,-2.1462,-2.1251,-2.1093,-2.1229,-2.0926,-2.0891,-2.0779,-2.0706,-2.07,-2.0504,-2.0504,-2.0591,-2.0621,0,0,0,-2.1546,-2.155,-2.1515,-2.1468,-2.1338,-2.1095,-2.1038,-2.0916,-2.086,-2.0711,-2.0699,-2.0504,-2.0504,-2.0588,-2.0616,-2.0592,0,0,0,-2.1642,-2.1596,-2.1518,-2.1446,-2.1341,-2.1155,-2.1039,-2.0894,-2.0777,-2.0705,-2.0504,-2.0504,-2.0588,-2.0614,-2.0591,-2.0589,-2.0596,0,0,-2.1633,-2.1599,-2.1549,-2.147,-2.1321,-2.1195,-2.1055,-2.0863,-2.0766,-2.0596,-2.059,-2.0592,-2.0616,-2.0592,-2.0609,-2.0617,0,0,0,-2.1576,-2.1542,-2.1483,-2.1378,-2.1233,-2.1109,-2.093,-2.0858,-2.071,-2.0699,-2.0574,-2.0585,-2.0568,-2.0562,-2.0568,-2.0547,-2.0506,-2.0506,-2.0506,-2.1688,-2.157,-2.1481,-2.1326,-2.1225,-2.104,-2.0946,-2.0817,-2.0724,-2.0697,-2.0646,-2.0672,-2.0669,-2.0673,-2.0652,-2.0635,-2.0636,-2.0636,-2.0636,-2.1664,-2.1597,-2.1478,-2.1349,-2.1223,-2.1111,-2.093,-2.0869,-2.0743,-2.07,-2.0678,-2.0642,-2.0684,-2.0659,-2.0641,-2.064,-2.064,-2.0639,-2.0639,-2.1725,-2.1672,-2.1588,-2.1424,-2.1309,-2.115,-2.1037,-2.0924,-2.0817,-2.0796,-2.0729,-2.0727,-2.071,-2.0772,-2.0772,-2.0772,-2.0772,-2.0772,-2.0772,-2.1821,-2.1723,-2.1644,-2.1486,-2.1404,-2.128,-2.1093,-2.1006,-2.0881,-2.0808,-2.0807,-2.0717,-2.0711,-2.0712,-2.0773,-2.0773,-2.0773,-2.0773,-2.0773,-2.1841,-2.1818,-2.1696,-2.1614,-2.1418,-2.1311,-2.1169,-2.1003,-2.0914,-2.0861,-2.0775,-2.0789,-2.0744,-2.0739,-2.0739,-2.0802,-2.0802,-2.0802,-2.0802,-2.1892,-2.1859,-2.1708,-2.1584,-2.1448,-2.1308,-2.1168,-2.1021,-2.0865,-2.0802,-2.0776,-2.0766,-2.0766,-2.0721,-2.0715,-2.0713,-2.0769,-2.0769,-2.0769,-2.1897,-2.1846,-2.1752,-2.1603,-2.1441,-2.1304,-2.1168,-2.1025,-2.0843,-2.0765,-2.075,-2.0751,-2.0734,-2.0735,-2.0658,-2.0653,-2.0647,0,0]}]]